Weather History for Manassas, VA

Change the Weather History Date:

Sunday, February 2, 2014

  Actual Average Record
Temperature  
Mean Temperature 45 °F -  
Max Temperature 64 °F 42 °F 64 °F (2014)
Min Temperature 26 °F 22 °F 3 °F (2004)
Degree Days  
Heating Degree Days 20    
Moisture  
Dew Point 32 °F    
Average Humidity 62    
Maximum Humidity 100    
Minimum Humidity 33    
Precipitation  
Precipitation 0.00 in - - ()
Sea Level Pressure  
Sea Level Pressure 29.98 in    
Wind  
Wind Speed 2 mph (North)    
Max Wind Speed 15 mph    
Max Gust Speed -    
Visibility 10 miles    
Events      
Averages and records for this station are not official NWS values.
T = Trace of Precipitation, MM = Missing Value Source: NWS Daily Summary

Daily Weather History Graph

Daily Weather History Graph

Search for Another Location

Airport:

Trip Planner

Search our weather history database for the weather conditions in past years. The results will help you decide how hot, cold, wet, or windy it might be!

Date:

Astronomy

Feb. 02, 2014 Rise Set
Actual Time 7:15 AM EST 5:33 PM EST
Civil Twilight 6:47 AM EST 6:01 PM EST
Nautical Twilight 6:15 AM EST 6:32 PM EST
Astronomical Twilight 5:44 AM EST 7:03 PM EST
Moon 8:43 AM EST (2/2) 9:11 PM EST (2/2)
Length of Visible Light 11h 13m
Length of Day
10h 17m
Waxing Crescent, 11% of the Moon is Illuminated
Feb 2
Waxing Crescent
Feb 6
First Quarter
Feb 14
Full
Feb 22
Last Quarter
Mar 1
New

Hourly Weather History & Observations

Time (EST) Temp. Windchill Dew Point Humidity Pressure Visibility Wind Dir Wind Speed Gust Speed Precip Events Conditions
12:15 AM 37.4 °F - 26.6 °F 65% 29.99 in 10.0 mi Calm Calm - N/A   Clear
12:35 AM 33.8 °F - 26.6 °F 75% 29.99 in 10.0 mi Calm Calm - N/A   Clear
12:55 AM 33.8 °F - 28.4 °F 81% 29.98 in 10.0 mi Calm Calm - N/A   Clear
1:15 AM 33.8 °F - 26.6 °F 75% 29.98 in 10.0 mi Calm Calm - N/A   Clear
1:35 AM 33.8 °F - 26.6 °F 75% 29.97 in 10.0 mi Calm Calm - N/A   Clear
1:55 AM 33.8 °F - 26.6 °F 75% 29.97 in 10.0 mi Calm Calm - N/A   Clear
2:15 AM 30.2 °F - 26.6 °F 86% 29.96 in 10.0 mi Calm Calm - N/A   Clear
2:35 AM 30.2 °F 26.7 °F 26.6 °F 86% 29.96 in 10.0 mi NW 3.5 mph - N/A   Clear
2:55 AM 30.2 °F - 26.6 °F 86% 29.97 in 10.0 mi Calm Calm - N/A   Clear
3:15 AM 30.2 °F - 26.6 °F 86% 29.96 in 10.0 mi Calm Calm - N/A   Clear
3:35 AM 28.4 °F - 26.6 °F 93% 29.95 in 10.0 mi Calm Calm - N/A   Clear
3:55 AM 28.4 °F - 26.6 °F 93% 29.95 in 10.0 mi Calm Calm - N/A   Clear
4:15 AM 28.4 °F - 26.6 °F 93% 29.95 in 10.0 mi Calm Calm - N/A   Clear
4:35 AM 26.6 °F - 26.6 °F 100% 29.95 in 10.0 mi Calm Calm - N/A   Clear
4:55 AM 28.4 °F - 26.6 °F 93% 29.95 in 10.0 mi Calm Calm - N/A   Clear
5:15 AM 26.6 °F - 24.8 °F 93% 29.95 in 10.0 mi Calm Calm - N/A   Clear
5:35 AM 26.6 °F 22.6 °F 26.6 °F 100% 29.94 in 10.0 mi SSE 3.5 mph - N/A   Clear
5:55 AM 26.6 °F 22.6 °F 26.6 °F 100% 29.95 in 10.0 mi NW 3.5 mph - N/A   Clear
6:15 AM 26.6 °F - 26.6 °F 100% 29.96 in 10.0 mi Calm Calm - N/A   Clear
7:50 AM 28.4 °F - 28.4 °F 100% 29.98 in 10.0 mi Calm Calm - N/A   Clear
8:50 AM 39.2 °F - 30.2 °F 70% 30.00 in 10.0 mi Calm Calm - N/A   Clear
10:55 AM 50.0 °F - 28.4 °F 43% 30.01 in 10.0 mi Calm Calm - N/A   Scattered Clouds
11:15 AM 53.6 °F - 28.4 °F 38% 30.01 in 10.0 mi NW 3.5 mph - N/A   Overcast
11:35 AM 53.6 °F - 28.4 °F 38% 30.00 in 10.0 mi NNE 3.5 mph - N/A   Overcast
11:55 AM 55.4 °F - 28.4 °F 36% 29.99 in 10.0 mi Calm Calm - N/A   Scattered Clouds
12:15 PM 57.2 °F - 30.2 °F 36% 29.98 in 10.0 mi Calm Calm - N/A   Scattered Clouds
12:35 PM 57.2 °F - 30.2 °F 36% 29.98 in 10.0 mi NNW 3.5 mph - N/A   Overcast
12:50 PM 57.2 °F - 30.2 °F 36% 29.97 in 10.0 mi Calm Calm - N/A   Overcast
12:55 PM 57.2 °F - 30.2 °F 36% 29.97 in 10.0 mi North 4.6 mph - N/A   Overcast
1:15 PM 57.2 °F - 30.2 °F 36% 29.97 in 10.0 mi North 4.6 mph - N/A   Overcast
1:35 PM 57.2 °F - 30.2 °F 36% 29.97 in 10.0 mi North 4.6 mph - N/A   Overcast
1:55 PM 57.2 °F - 28.4 °F 33% 29.95 in 10.0 mi Calm Calm - N/A   Overcast
2:15 PM 57.2 °F - 30.2 °F 36% 29.95 in 10.0 mi Calm Calm - N/A   Overcast
2:35 PM 59.0 °F - 30.2 °F 34% 29.93 in 10.0 mi ESE 4.6 mph - N/A   Overcast
2:55 PM 60.8 °F - 32.0 °F 34% 29.93 in 10.0 mi Calm Calm - N/A   Scattered Clouds
3:15 PM 62.6 °F - 33.8 °F 34% 29.92 in 10.0 mi Calm Calm - N/A   Clear
3:35 PM 62.6 °F - 33.8 °F 34% 29.92 in 10.0 mi Calm Calm - N/A   Clear
3:55 PM 64.4 °F - 35.6 °F 34% 29.91 in 10.0 mi SE 8.1 mph - N/A   Clear
4:15 PM 62.6 °F - 35.6 °F 37% 29.93 in 10.0 mi Calm Calm - N/A   Clear
4:35 PM 62.6 °F - 35.6 °F 37% 29.94 in 10.0 mi Calm Calm - N/A   Clear
4:55 PM 60.8 °F - 33.8 °F 36% 29.95 in 10.0 mi ENE 3.5 mph - N/A   Clear
5:15 PM 57.2 °F - 33.8 °F 41% 29.96 in 10.0 mi NE 3.5 mph - N/A   Partly Cloudy
5:35 PM 55.4 °F - 33.8 °F 44% 29.96 in 10.0 mi Calm Calm - N/A   Mostly Cloudy
5:55 PM 53.6 °F - 33.8 °F 47% 29.97 in 10.0 mi Calm Calm - N/A   Overcast
6:15 PM 48.2 °F - 35.6 °F 62% 29.97 in 10.0 mi Calm Calm - N/A   Mostly Cloudy
6:35 PM 44.6 °F 43.1 °F 33.8 °F 66% 29.98 in 10.0 mi NW 3.5 mph - N/A   Scattered Clouds
6:55 PM 44.6 °F - 33.8 °F 66% 29.97 in 10.0 mi Calm Calm - N/A   Clear
7:15 PM 42.8 °F 40.1 °F 33.8 °F 70% 29.99 in 10.0 mi NNW 4.6 mph - N/A   Clear
7:35 PM 44.6 °F 43.1 °F 35.6 °F 71% 30.00 in 10.0 mi NNW 3.5 mph - N/A   Scattered Clouds
7:55 PM 44.6 °F 41.4 °F 35.6 °F 71% 30.01 in 10.0 mi North 5.8 mph - N/A   Overcast
8:15 PM 50.0 °F - 35.6 °F 58% 30.01 in 10.0 mi North 8.1 mph - N/A   Overcast
8:35 PM 51.8 °F - 35.6 °F 54% 30.03 in 10.0 mi North 8.1 mph - N/A   Overcast
8:55 PM 51.8 °F - 35.6 °F 54% 30.03 in 10.0 mi North 8.1 mph - N/A   Overcast
9:15 PM 51.8 °F - 35.6 °F 54% 30.02 in 10.0 mi North 5.8 mph - N/A   Overcast
9:35 PM 51.8 °F - 35.6 °F 54% 30.04 in 10.0 mi NNW 5.8 mph - N/A   Overcast
9:55 PM 51.8 °F - 35.6 °F 54% 30.04 in 10.0 mi NNE 3.5 mph - N/A   Overcast
10:15 PM 51.8 °F - 37.4 °F 58% 30.02 in 10.0 mi North 11.5 mph - N/A   Overcast
10:35 PM 50.0 °F - 42.8 °F 76% 30.06 in 10.0 mi North 15.0 mph - N/A   Overcast
10:55 PM 48.2 °F - 41.0 °F 76% 30.06 in 10.0 mi North 11.5 mph - N/A   Overcast
11:15 PM 48.2 °F - 41.0 °F 76% 30.05 in 10.0 mi North 13.8 mph - N/A   Overcast
11:35 PM 48.2 °F - 41.0 °F 76% 30.06 in 10.0 mi North 10.4 mph - N/A   Overcast
11:55 PM 46.4 °F 40.7 °F 41.0 °F 81% 30.06 in 10.0 mi North 12.7 mph - N/A   Overcast